Theta_e
321 321 320 321 328 328 329 332 334 336 332 333 332 332 332 330 330 329 327 328 328 328 328 328 327 327 327 327 325 325 325 325 325 324 324 323 323 322 319 319 319 319 319
320 320 319 323 329 330 331 332 333 336 332 332 334 332 330 328 328 328 327 327 327 327 327 327 328 327 326 327 324 325 325 325 324 324 324 324 323 322 321 319 319 319 318
318 320 321 322 327 330 332 332 333 335 334 334 332 332 331 329 329 330 328 327 327 327 326 326 327 326 325 325 323 324 324 325 324 324 323 324 325 322 321 320 318 318 318
323 324 324 323 325 330 331 331 333 333 333 334 332 331 330 329 329 329 329 327 328 327 326 326 325 324 324 323 321 323 324 324 324 324 322 321 321 324 324 321 320 319 318
327 329 327 324 323 329 330 329 331 332 333 333 332 330 328 328 328 329 329 329 328 326 326 325 325 324 323 322 321 322 323 324 324 324 323 323 323 322 321 322 320 320 320
328 328 328 324 325 330 328 328 330 330 329 330 330 328 327 327 328 328 328 328 327 326 326 325 324 323 322 321 321 321 322 323 324 323 322 322 322 322 321 320 320 321 320
329 330 329 329 328 330 325 327 330 328 325 327 327 327 327 326 325 325 326 326 325 324 323 324 322 322 320 319 320 320 322 322 323 323 322 322 321 320 319 319 320 320 320
330 330 330 330 329 326 325 325 328 325 325 327 326 326 326 325 325 327 326 325 323 323 323 320 319 320 320 320 319 319 321 322 323 323 322 322 321 322 321 320 323 325 322
331 331 330 329 328 325 323 324 325 325 325 327 327 326 326 325 325 327 326 323 322 321 318 316 317 317 318 318 318 318 320 321 322 322 322 322 322 323 323 323 322 321 323
329 329 328 327 325 324 323 323 323 325 324 326 325 325 324 325 326 326 323 323 321 319 316 316 317 317 316 316 317 318 319 320 321 321 321 321 320 319 320 317 321 320 320
328 327 324 324 324 322 322 322 322 324 324 323 324 323 323 324 325 326 324 323 321 318 317 317 317 317 316 316 316 317 317 318 319 318 318 319 317 317 317 316 317 318 319
324 324 323 318 316 322 322 321 321 322 323 323 322 322 323 324 324 322 322 322 321 318 317 318 317 317 316 315 316 317 317 318 318 318 318 318 318 319 317 317 317 318 319
321 320 319 318 313 312 320 321 321 322 322 321 320 321 322 322 323 324 322 322 321 319 317 317 317 316 317 316 315 316 316 317 318 317 314 317 319 319 319 319 317 318 317
321 320 319 316 312 310 309 311 319 322 322 321 321 322 323 324 323 324 323 321 321 321 319 317 316 315 315 316 316 316 315 317 317 316 316 318 318 318 317 317 317 316 317
321 319 317 314 310 308 308 308 309 312 320 322 323 323 323 323 322 322 323 323 321 320 321 320 318 317 317 317 316 315 316 317 317 317 318 318 317 318 318 317 317 317 316
318 317 315 312 308 305 306 306 307 309 312 319 323 323 321 321 322 322 322 322 322 322 322 321 320 319 319 318 317 317 316 316 318 317 317 317 317 317 317 317 317 316 315
314 313 311 308 307 304 303 305 305 305 308 310 319 323 321 321 320 322 321 321 321 321 321 319 318 318 320 320 319 318 317 317 317 317 317 314 312 313 313 313 313 311 310
311 310 308 306 304 304 303 303 302 302 303 304 305 308 316 322 321 321 321 320 321 320 320 320 319 318 318 318 318 319 318 318 316 315 314 312 308 307 308 304 301 297 296
307 306 304 302 301 301 301 301 300 300 299 298 300 301 302 309 316 322 321 321 320 320 319 318 318 317 318 317 317 316 316 315 314 312 310 309 307 304 301 300 291 283 280
303 304 302 300 299 298 300 297 297 296 296 296 296 298 298 301 306 313 321 321 321 320 318 316 316 316 316 317 316 315 314 311 305 300 298 299 299 291 290 294 286 279 277
300 301 300 298 296 296 297 297 294 293 293 293 294 294 295 297 300 308 316 320 320 317 315 313 310 311 310 308 307 310 312 308 297 291 288 286 286 284 283 284 281 278 277
299 298 298 296 294 293 293 294 293 291 291 291 291 292 292 293 296 299 308 315 313 306 301 299 297 297 298 299 298 300 299 293 290 285 283 282 281 280 282 281 277 277 277
296 296 296 295 292 291 290 291 290 290 290 290 290 290 290 290 291 294 295 297 299 295 291 290 288 287 288 288 292 293 290 287 284 282 282 280 279 278 277 276 276 276 276
294 293 293 292 291 289 288 288 288 289 289 289 288 288 288 288 288 290 291 292 291 289 288 287 285 284 283 283 283 282 282 282 280 278 277 276 276 276 275 275 275 275 276
292 290 290 289 288 287 286 286 287 288 288 287 287 287 287 286 286 285 286 287 288 289 287 285 284 283 280 280 281 280 278 277 276 277 276 275 275 274 274 273 273 273 273
289 288 287 287 286 285 285 284 285 287 287 286 286 286 286 285 285 284 284 283 284 284 284 284 284 281 280 279 278 277 277 276 277 276 275 275 274 274 274 273 273 273 272
Wind_Speed
19 23 19 16 12 10 15 23 26 29 31 30 28 22 21 21 20 20 25 28 32 36 38 37 34 36 32 30 31 31 30 27 25 24 20 15 12 13 16 16 16 16 16
19 18 16 16 12 12 15 22 25 29 29 28 26 18 21 20 20 20 24 26 30 35 34 35 37 36 33 30 32 32 30 28 29 27 22 8 10 14 16 17 17 17 16
15 13 13 16 15 15 18 21 25 29 27 26 23 18 17 13 19 19 22 27 30 32 35 35 35 43 38 33 35 34 34 28 29 28 22 10 9 19 18 17 18 17 17
10 12 13 13 14 15 15 18 23 28 28 28 25 24 22 17 18 20 19 23 25 25 32 35 35 38 42 39 38 37 35 32 30 28 23 18 15 12 8 17 19 18 18
6 8 9 12 10 13 15 18 23 26 26 28 23 22 18 14 14 19 20 21 20 26 30 35 38 42 43 40 42 37 34 33 31 29 23 19 18 18 11 10 18 20 21
4 5 4 4 8 13 15 19 23 25 24 25 21 20 19 16 15 17 17 17 18 24 29 31 38 41 43 42 45 43 37 33 32 29 27 25 20 16 13 8 17 20 21
6 7 5 1 7 11 14 17 24 24 23 23 21 20 18 16 17 18 20 16 21 23 27 33 37 38 37 43 45 42 39 34 32 32 28 23 21 15 15 12 12 14 14
7 9 7 3 4 8 12 16 21 21 23 23 22 20 16 15 17 17 15 16 21 26 29 35 36 38 39 44 43 40 39 36 33 32 28 24 20 16 14 12 12 8 11
9 10 9 7 5 4 9 14 17 18 20 22 20 18 15 16 15 13 12 17 17 22 25 30 31 31 35 35 38 36 35 32 30 32 28 23 19 16 14 11 9 9 6
9 9 9 8 7 1 7 12 14 17 17 19 18 16 14 14 12 12 10 14 18 21 24 27 29 31 34 35 33 31 31 31 28 27 26 22 17 16 14 13 6 5 7
9 11 10 10 8 2 4 9 12 15 17 17 16 14 13 13 11 11 10 13 19 24 26 28 30 30 31 35 30 29 32 31 28 27 27 23 23 22 19 18 13 10 8
12 13 13 12 18 5 4 9 11 13 15 14 14 14 13 13 10 9 10 15 21 25 29 29 30 31 29 32 32 31 31 30 28 28 28 26 26 25 27 22 22 20 14
12 12 13 13 14 21 4 8 10 11 12 14 14 13 15 14 12 11 10 11 19 24 28 31 30 30 29 34 32 30 30 29 31 35 30 27 24 24 18 20 24 19 22
11 12 13 13 15 17 18 20 2 9 11 13 14 14 16 16 14 12 12 12 13 21 25 30 32 32 35 35 35 33 33 30 29 30 31 30 31 30 28 25 26 24 24
10 11 12 11 13 15 15 16 20 18 6 15 14 14 16 16 14 14 13 13 14 15 20 24 28 32 33 34 33 33 32 28 25 29 29 30 29 27 27 29 29 28 26
10 10 12 11 11 14 13 13 16 20 14 3 13 14 15 15 16 16 15 14 14 15 16 17 25 27 28 33 35 36 33 33 29 33 33 32 31 31 30 31 33 31 29
9 10 11 9 12 13 10 11 16 19 17 13 5 10 14 16 17 16 16 16 15 15 15 16 19 20 25 28 30 35 33 33 33 33 34 29 25 27 24 23 22 20 20
10 10 9 11 13 14 16 15 15 14 16 16 14 12 3 15 17 16 16 17 17 17 16 17 17 18 22 22 26 29 30 32 32 33 34 32 27 23 20 17 13 9 6
8 10 10 12 13 14 14 13 16 16 19 19 16 14 11 7 4 18 20 19 18 18 17 18 20 19 16 22 24 29 27 25 24 26 28 27 26 23 23 22 24 27 30
12 10 9 11 14 15 13 14 15 14 16 19 17 14 12 10 9 8 16 20 20 20 22 19 18 19 22 21 26 30 29 26 24 22 22 23 24 25 26 27 32 35 28
12 10 11 12 14 13 12 11 11 14 12 12 12 12 13 11 9 11 13 19 19 20 22 21 15 15 16 15 21 30 30 31 27 24 21 23 27 27 26 28 30 32 32
11 12 11 12 13 14 13 10 12 11 9 10 12 13 14 12 10 5 6 16 19 20 18 17 15 10 7 9 16 21 16 23 29 28 30 31 30 29 29 30 34 33 32
11 12 11 11 14 14 14 12 13 12 10 10 11 11 11 10 13 14 9 13 15 17 17 18 19 22 21 20 11 14 25 31 36 35 38 37 37 37 36 34 30 29 27
11 13 12 13 14 14 13 13 13 11 12 13 13 13 18 17 19 20 16 14 15 18 19 20 21 22 24 27 31 34 39 44 46 42 37 38 40 39 35 31 26 20 15
10 12 12 13 14 15 16 17 15 13 13 13 13 14 17 21 25 30 20 18 14 16 23 22 23 24 22 22 33 37 39 40 39 44 39 32 28 28 27 25 22 20 17
11 12 13 13 14 15 16 16 14 13 12 15 15 17 17 19 21 24 33 36 31 28 27 27 27 28 31 30 31 34 35 35 39 35 29 26 20 20 19 21 19 17 17
Wind_Direction
259 261 257 248 246 235 210 201 197 193 184 178 172 182 191 200 206 214 218 220 214 209 211 209 213 189 185 186 180 183 183 182 177 164 158 162 173 181 183 184 187 190 195
256 257 243 231 232 225 210 200 195 189 185 183 185 189 186 201 209 208 215 218 221 214 210 207 204 185 181 183 179 182 181 179 176 168 164 156 174 192 192 189 193 196 198
261 258 247 228 227 217 206 198 191 188 186 187 183 184 186 190 204 209 211 214 220 221 215 212 200 191 183 180 178 183 184 174 176 183 178 170 187 176 190 195 200 199 203
252 258 257 244 217 214 200 194 192 187 186 185 186 189 189 195 206 213 217 218 214 213 218 210 202 185 187 186 183 183 185 178 180 184 192 188 178 179 173 199 205 205 209
271 277 279 250 220 191 189 185 185 186 182 187 190 191 200 200 201 215 219 217 217 226 225 220 211 200 192 187 183 183 186 184 183 185 184 180 170 202 182 180 194 203 211
334 308 330 238 185 173 176 180 184 182 178 185 190 193 192 189 203 215 219 221 219 228 228 224 206 195 190 186 184 182 186 185 186 184 187 188 184 186 200 203 188 196 202
5 351 2 170 168 169 176 186 187 177 174 180 186 192 191 195 216 220 226 222 224 224 219 219 204 187 185 183 183 182 185 188 187 186 189 194 197 196 199 204 190 190 175
30 21 23 54 147 172 187 191 190 179 178 178 184 191 190 207 222 225 224 221 230 234 232 211 197 190 188 185 181 183 185 189 190 189 189 192 195 192 188 205 170 176 170
49 44 48 35 29 190 194 190 190 186 180 179 184 187 189 209 215 221 215 233 228 225 215 196 188 182 183 179 178 180 181 188 188 190 188 189 188 175 154 153 175 191 179
67 49 40 37 36 30 190 191 189 187 176 179 183 186 191 209 212 214 205 215 208 208 200 188 183 179 179 174 172 172 176 182 184 183 180 179 172 164 163 161 151 227 215
65 62 45 30 27 29 178 185 177 178 174 178 179 186 193 203 200 207 198 204 195 192 185 178 175 169 170 172 171 171 177 181 181 185 186 189 197 206 196 201 211 210 199
78 68 60 44 36 15 160 161 158 165 168 181 185 184 192 198 186 192 195 194 194 190 182 171 169 168 174 175 179 181 183 181 184 190 194 199 200 199 208 210 204 205 201
96 78 67 59 43 28 36 161 163 171 173 180 184 189 189 193 190 190 182 184 187 185 185 182 178 176 177 175 181 182 183 191 191 196 203 208 201 205 201 200 213 214 227
82 67 57 48 60 47 22 17 8 186 184 182 190 197 202 197 187 187 178 177 186 182 180 190 192 193 190 187 188 190 193 197 200 202 198 204 212 213 215 225 236 235 239
77 61 58 42 29 47 39 18 12 8 219 196 194 205 208 203 198 197 185 179 179 182 188 184 191 197 202 200 200 200 200 205 208 210 212 219 226 230 234 231 236 238 231
78 67 57 37 41 16 33 24 17 1 339 308 212 205 208 203 198 205 199 191 189 186 182 184 194 192 196 207 207 206 203 203 208 208 214 221 226 233 234 243 247 234 226
59 49 46 30 23 17 360 29 31 8 354 22 264 221 200 206 207 203 203 204 199 194 193 188 190 196 206 212 209 211 207 206 208 209 211 206 207 216 209 212 219 220 222
56 45 38 26 25 12 6 14 35 15 0 20 22 18 307 212 206 205 204 206 206 202 201 198 198 200 209 209 212 202 200 202 206 209 205 196 186 189 192 187 171 143 150
49 48 40 35 28 18 10 19 27 20 0 3 4 355 344 322 282 206 202 204 206 203 204 205 206 206 210 212 208 198 197 192 190 195 197 197 194 193 192 178 138 111 95
46 40 38 40 35 17 12 25 28 26 7 351 342 342 345 336 303 294 227 209 206 208 200 200 210 218 221 214 207 208 200 185 179 182 186 193 187 169 165 160 143 116 116
41 34 38 39 33 24 18 26 29 25 357 338 345 349 350 348 317 283 249 223 200 196 187 185 185 203 218 209 204 202 199 187 172 158 145 142 147 137 134 144 136 126 130
30 29 34 33 27 22 22 27 20 5 10 2 5 8 8 355 2 346 201 196 188 171 157 144 123 125 147 187 189 191 185 163 144 126 124 123 120 120 131 125 120 122 124
27 25 26 29 26 21 19 12 5 7 16 31 32 22 28 25 44 64 74 112 145 135 112 105 94 89 98 100 131 149 142 133 118 116 119 117 111 107 105 111 117 118 115
25 21 23 24 20 20 18 16 6 7 31 37 36 39 45 45 52 68 73 87 103 104 104 103 101 99 96 99 103 103 105 110 111 113 114 113 112 111 112 113 108 104 109
37 29 27 24 23 19 18 15 10 21 40 49 49 52 56 60 59 60 65 80 95 123 116 110 110 108 95 109 125 125 117 115 116 119 115 105 102 102 103 104 107 109 110
40 40 34 28 24 25 24 18 17 31 46 53 51 52 61 68 75 77 74 74 85 94 108 120 123 108 113 113 110 111 113 117 126 113 104 100 102 102 113 115 111 110 109